Simultaneous Nadir Overpasses (SNOs) Predictions

Prediction of SNOs between AQUA and NOAA-19 Satellite Orbit:

Table of predicted SNOs for the next 14.0 days since TLE Epoch: 5/29/2015
Index Date (AQUA) Time (AQUA) Lat,Lon (AQUA) SZA (AQUA ) Date (NOAA-19) Time (NOAA-19) Lat,Lon (NOAA-19) SZA (NOAA-19 ) Distance(km) Time Diff (sec)
1 05/30/2015 12:03:43 -79.93, 149.36 120.51 05/30/2015 12:03:41 -79.93, 149.38 120.52 0.53 2
2 06/01/2015 16:48:04 -79.99, 77.77 120.72 06/01/2015 16:47:05 -79.99, 77.91 120.71 2.62 59
3 06/01/2015 17:37:28 79.89,-113.79 59.13 06/01/2015 17:38:07 79.88,-113.70 59.10 1.99 39
4 06/03/2015 22:21:49 79.96, 174.55 58.97 06/03/2015 22:21:32 79.96, 174.59 58.97 0.77 17
5 06/03/2015 23:11:12 -79.84, -16.86 121.23 06/03/2015 23:12:24 -79.84, -16.79 121.26 1.48 72
6 06/06/2015 03:06:10 80.04, 102.82 58.86 06/06/2015 03:04:57 80.04, 102.83 58.89 0.41 73
7 06/06/2015 03:55:34 -79.96, -88.86 121.28 06/06/2015 03:55:50 -79.96, -88.90 121.29 0.74 16
8 06/08/2015 08:39:55 -80.05,-160.66 121.35 06/08/2015 08:39:15 -80.05,-160.75 121.32 1.76 40
9 06/08/2015 09:29:17 79.88, 8.33 58.39 06/08/2015 09:30:15 79.87, 8.47 58.35 2.80 58
10 06/10/2015 14:13:39 80.01, -63.82 58.43 06/10/2015 14:13:42 80.02, -63.96 58.44 2.72 3
11 06/12/2015 18:57:59 80.08,-135.48 58.40 06/12/2015 18:57:06 80.08,-135.53 58.43 1.01 53
